Regional Weather Roundup
Issued by NWS Little Rock, AR

Home | Current Version | Previous Version | Graphics & Text | Print | Product List | Glossary On
Versions: 1 2 3 4 5 6 7 8 9 10 11 12 13 14 15 16 17 18 19 20 21 22 23 24 25 26 27 28 29 30 31 32 33 34 35 36 37 38 39 40 41 42 43 44 45 46 47 48 49 50
000
ASUS44 KLZK 221005
RWRLZK

WEATHER ROUNDUP FOR ARKANSAS
NATIONAL WEATHER SERVICE LITTLE ROCK AR
400 AM CST MON JAN 22 2018

NOTE: "FAIR" INDICATES FEW OR NO CLOUDS BELOW 12,000 FEET WITH NO
SIGNIFICANT WEATHER AND/OR OBSTRUCTIONS TO VISIBILITY.

ARZ001-003-010-029-221100-
NORTHWEST ARKANSAS

CITY           SKY/WX    TMP DP  RH WIND       PRES   REMARKS
FAYETTEVILLE   MOCLDY    48  33  56 SW10      29.67S
FORT SMITH     MOCLDY    50  33  52 W10       29.70R
HARRISON       CLEAR     51  32  48 SW7       29.63F
BENTONVILLE    PTCLDY    46  32  58 SW12      29.66S
ROGERS         MOCLDY    47  30  51 SW13      29.64F
SILOAM SPGS    PTCLDY    46  31  55 SW14      29.67R
HIGHFILL       PTCLDY    47  32  56 SW14      29.65S
$$

ARZ004-005-016-221100-
NORTH CENTRAL ARKANSAS

CITY           SKY/WX    TMP DP  RH WIND       PRES   REMARKS
BATESVILLE     CLOUDY    55  52  89 S8        29.73R
FLIPPIN        MOCLDY    50  47  89 CALM      29.65F
MTN HOME       MOCLDY    51  47  86 SW7       29.64F
$$

ARZ040-041-221100-
WEST CENTRAL ARKANSAS

CITY           SKY/WX    TMP DP  RH WIND       PRES   REMARKS
MENA           CLEAR     54  34  47 W8        29.74S
MOUNT IDA      CLEAR     46  45  96 CALM      29.70
$$

ARZ009-017-025-026-028-221100-
NORTHEAST ARKANSAS

CITY           SKY/WX    TMP DP  RH WIND       PRES   REMARKS
JONESBORO      RAIN      55  55 100 SW17      29.76F
NEWPORT        LGT RAIN  53  50  89 S20       29.74S
WALNUT RIDGE   LGT RAIN  55  54  96 S20       29.72R
BLYTHEVILLE    TSTM      60  59  96 S14G25    29.74R
$$

ARZ022-023-033-042-044-221100-
CENTRAL ARKANSAS

CITY           SKY/WX    TMP DP  RH WIND       PRES   REMARKS
LITTLE ROCK    CLOUDY    49  49 100 S6        29.79R
N LITTLE ROCK    N/A     49  48  96 S5        29.71R
JACKSONVILLE   MOCLDY    50  50  98 SE7       29.76R
SEARCY         CLOUDY    50  50 100 S9        29.77R
HOT SPRINGS    MOCLDY    48  48 100 CALM      29.76R
RUSSELLVILLE   MOCLDY    47  43  86 S5        29.70R
CLINTON        FAIR      48  48 100 SE5       29.72R
$$

ARZ036-221100-
EAST ARKANSAS

CITY           SKY/WX    TMP DP  RH WIND       PRES   REMARKS
WEST MEMPHIS   LGT RAIN  59  54  83 S21G28    29.75R
$$

ARZ050-053-066-070-073-221100-
SOUTHWEST ARKANSAS

CITY           SKY/WX    TMP DP  RH WIND       PRES   REMARKS
ARKADELPHIA    FAIR      48  47  96 CALM      29.79R
CAMDEN         CLOUDY    54  48  82 W6        29.80R
TEXARKANA      MOCLDY    50  44  80 SW9       29.80R
EL DORADO      CLOUDY    53  53 100 S3        29.82S
DE QUEEN       FOG       44  44 100 W3        29.75S VSB 3/4
$$

ARZ056-057-069-221100-
SOUTHEAST ARKANSAS

CITY           SKY/WX    TMP DP  RH WIND       PRES   REMARKS
PINE BLUFF       N/A    N/A N/A N/A MISG      29.79F
STUTTGART      LGT RAIN  50  48  93 S8        29.80F
MONTICELLO     HVY RAIN  62  59  90 S8        29.78F FOG

$$





USA.gov is the U.S. government's official web portal to all federal, state and local government web resources and services.